This is the latest recevied weather packets stored in our database for station/object YO3FNC-10. If no packets are shown the sender has not sent any weather packets the latest 10 day(s).
| Time | Temp. | Humidity | Pressure | Rain* | Wind** | Luminosity | Snow |
|---|---|---|---|---|---|---|---|
| 1788394579 | 29.44° C | 38% | 1017.6 hPa | - | - | - | - |
| 1788393679 | 28.89° C | 38% | 1017.5 hPa | - | - | - | - |
| 1788392778 | 28.89° C | 39% | 1017.5 hPa | - | - | - | - |
| 1788391877 | 28.33° C | 39% | 1017.6 hPa | - | - | - | - |
| 1788390977 | 27.78° C | 40% | 1018 hPa | - | - | - | - |
| 1788390077 | 27.22° C | 41% | 1018.2 hPa | - | - | - | - |
| 1788389177 | 27.78° C | 40% | 1018.2 hPa | - | - | - | - |
| 1788388277 | 28.33° C | 39% | 1018.1 hPa | - | - | - | - |
| 1788387377 | 28.89° C | 38% | 1018.2 hPa | - | - | - | - |
| 1788386477 | 28.89° C | 38% | 1018.3 hPa | - | - | - | - |
| 1788385576 | 28.89° C | 38% | 1018.2 hPa | - | - | - | - |
| 1788384675 | 28.89° C | 38% | 1018 hPa | - | - | - | - |
| 1788383774 | 28.33° C | 39% | 1018.1 hPa | - | - | - | - |
| 1788382874 | 28.33° C | 39% | 1018.2 hPa | - | - | - | - |
| 1788381974 | 28.33° C | 39% | 1018.1 hPa | - | - | - | - |
| 1788381074 | 27.78° C | 39% | 1018 hPa | - | - | - | - |
| 1788380174 | 28.33° C | 39% | 1018 hPa | - | - | - | - |
| 1788379273 | 28.33° C | 39% | 1017.9 hPa | - | - | - | - |
| 1788378373 | 28.33° C | 38% | 1018 hPa | - | - | - | - |
| 1788377473 | 28.33° C | 38% | 1018.1 hPa | - | - | - | - |
| 1788376572 | 28.33° C | 38% | 1018.2 hPa | - | - | - | - |
| 1788375672 | 28.33° C | 37% | 1018 hPa | - | - | - | - |
| 1788374772 | 28.89° C | 37% | 1018 hPa | - | - | - | - |
| 1788373871 | 28.89° C | 37% | 1018 hPa | - | - | - | - |
| 1788372971 | 28.89° C | 37% | 1017.9 hPa | - | - | - | - |
* Rain since midnight (hover to see other rain measurements)
** Current wind speed in m/s (hover to see current wind gust speed)